When you browse on this site, cookies collect data to enhance your experience and personalize the content and advertising you see.
Visit our Privacy Policy to learn more. By continuing to use the site, you agree to this use of cookies and data.
  • In Latvia
  • List of Countries
  • For 7 days
  • Water Temperature
  • Weather Map
  • Weather Widgets
  • user-avatar
    Login

    Hourly Weather Guatire

    Today, 8 April, Wednesday

    Time Temperature Precipitation Wind Pressure Humidity
    00:00 +25°C° 0 mm 1 mps 731 mmHg 95%
    01:00 +25°C° 0 mm 1 mps 731 mmHg 96%
    02:00 +24°C° 0 mm 1 mps 730 mmHg 97%
    03:00 +24°C° 0 mm 1 mps 730 mmHg 97%
    04:00 +24°C° 0 mm 1 mps 730 mmHg 97%
    05:00 +24°C° 0 mm 1 mps 730 mmHg 97%
    06:00 +25°C° 0 mm 1 mps 730 mmHg 92%
    07:00 +26°C° 0 mm 1 mps 731 mmHg 87%
    08:00 +27°C° 0 mm 2 mps 731 mmHg 83%
    09:00 +29°C° 0 mm 2 mps 732 mmHg 72%
    10:00 +32°C° 0 mm 2 mps 732 mmHg 61%
    11:00 +35°C° 0 mm 2 mps 732 mmHg 50%
    12:00 +36°C° 0 mm 2 mps 732 mmHg 48%
    13:00 +37°C° 0 mm 3 mps 731 mmHg 45%
    14:00 +37°C° 0 mm 3 mps 730 mmHg 43%
    15:00 +36°C° 0 mm 2 mps 729 mmHg 50%
    16:00 +34°C° 0 mm 2 mps 729 mmHg 57%
    17:00 +32°C° 0 mm 2 mps 728 mmHg 64%
    18:00 +30°C° 0.1 mm 2 mps 729 mmHg 73%
    19:00 +28°C° 0.1 mm 2 mps 729 mmHg 83%
    20:00 +26°C° 0.1 mm 2 mps 729 mmHg 92%
    21:00 +25°C° 0 mm 2 mps 730 mmHg 93%
    22:00 +25°C° 0 mm 2 mps 731 mmHg 93%
    23:00 +25°C° 0 mm 1 mps 731 mmHg 94%

    Tomorrow, 9 April, Thursday

    Time Temperature Precipitation Wind Pressure Humidity
    00:00 +25°C° 0 mm 1 mps 731 mmHg 94%
    01:00 +24°C° 0 mm 1 mps 730 mmHg 95%
    02:00 +24°C° 0 mm 1 mps 729 mmHg 95%
    03:00 +24°C° 0 mm 1 mps 729 mmHg 94%
    04:00 +24°C° 0 mm 1 mps 729 mmHg 93%
    05:00 +24°C° 0 mm 1 mps 729 mmHg 93%
    06:00 +25°C° 0 mm 2 mps 730 mmHg 89%
    07:00 +26°C° 0 mm 2 mps 730 mmHg 85%
    08:00 +27°C° 0 mm 2 mps 731 mmHg 81%
    09:00 +30°C° 0 mm 2 mps 731 mmHg 69%
    10:00 +34°C° 0 mm 2 mps 731 mmHg 57%
    11:00 +37°C° 0 mm 2 mps 732 mmHg 45%
    12:00 +37°C° 0 mm 2 mps 731 mmHg 43%
    13:00 +38°C° 0 mm 2 mps 730 mmHg 41%
    14:00 +38°C° 0 mm 2 mps 729 mmHg 39%
    15:00 +37°C° 0.1 mm 2 mps 729 mmHg 46%
    16:00 +35°C° 0.1 mm 2 mps 728 mmHg 53%
    17:00 +32°C° 0.1 mm 2 mps 728 mmHg 60%
    18:00 +30°C° 0 mm 2 mps 728 mmHg 70%
    19:00 +28°C° 0 mm 1 mps 728 mmHg 80%
    20:00 +26°C° 0 mm 1 mps 728 mmHg 91%
    21:00 +25°C° 0 mm 1 mps 729 mmHg 92%
    22:00 +25°C° 0 mm 1 mps 730 mmHg 94%
    23:00 +25°C° 0 mm 1 mps 730 mmHg 95%

    Day after tomorrow, 10 April, Friday

    Time Temperature Precipitation Wind Pressure Humidity
    00:00 +24°C° 0 mm 1 mps 730 mmHg 94%
    01:00 +24°C° 0 mm 1 mps 730 mmHg 93%
    02:00 +24°C° 0 mm 1 mps 729 mmHg 92%
    03:00 +24°C° 0 mm 1 mps 729 mmHg 92%
    04:00 +24°C° 0 mm 1 mps 729 mmHg 92%
    05:00 +23°C° 0 mm 1 mps 729 mmHg 92%
    06:00 +25°C° 0 mm 1 mps 730 mmHg 86%
    07:00 +26°C° 0 mm 1 mps 730 mmHg 81%
    08:00 +27°C° 0 mm 2 mps 731 mmHg 76%
    09:00 +30°C° 0 mm 2 mps 731 mmHg 65%
    10:00 +34°C° 0 mm 2 mps 731 mmHg 54%
    11:00 +37°C° 0 mm 2 mps 732 mmHg 44%
    12:00 +37°C° 0 mm 2 mps 731 mmHg 43%
    13:00 +37°C° 0 mm 2 mps 730 mmHg 43%
    14:00 +37°C° 0 mm 2 mps 730 mmHg 42%
    15:00 +35°C° 0.2 mm 2 mps 729 mmHg 50%
    16:00 +33°C° 0.2 mm 1 mps 729 mmHg 57%
    17:00 +31°C° 0.2 mm 1 mps 729 mmHg 65%
    18:00 +29°C° 0.1 mm 1 mps 729 mmHg 74%
    19:00 +27°C° 0.1 mm 1 mps 729 mmHg 82%
    20:00 +26°C° 0.1 mm 1 mps 730 mmHg 91%
    21:00 +25°C° 0 mm 1 mps 730 mmHg 92%
    22:00 +25°C° 0 mm 1 mps 730 mmHg 93%
    23:00 +25°C° 0 mm 1 mps 731 mmHg 94%

    11 April, Saturday

    Time Temperature Precipitation Wind Pressure Humidity
    00:00 +25°C° 0 mm 1 mps 730 mmHg 93%
    01:00 +25°C° 0 mm 1 mps 730 mmHg 92%
    02:00 +24°C° 0 mm 1 mps 730 mmHg 91%
    03:00 +24°C° 0 mm 1 mps 730 mmHg 91%
    04:00 +24°C° 0 mm 1 mps 730 mmHg 91%
    05:00 +24°C° 0 mm 1 mps 730 mmHg 91%
    06:00 +25°C° 0 mm 1 mps 731 mmHg 87%
    07:00 +26°C° 0 mm 1 mps 732 mmHg 83%
    08:00 +27°C° 0 mm 2 mps 732 mmHg 80%
    09:00 +29°C° 0 mm 2 mps 732 mmHg 68%
    10:00 +31°C° 0 mm 2 mps 733 mmHg 56%
    11:00 +35°C° 0 mm 3 mps 733 mmHg 45%
    12:00 +35°C° 0 mm 3 mps 732 mmHg 41%
    13:00 +36°C° 0 mm 3 mps 731 mmHg 37%
    14:00 +36°C° 0 mm 4 mps 730 mmHg 33%
    15:00 +35°C° 0 mm 3 mps 730 mmHg 39%
    16:00 +34°C° 0 mm 3 mps 729 mmHg 44%
    17:00 +33°C° 0 mm 3 mps 729 mmHg 49%
    18:00 +29°C° 0 mm 2 mps 729 mmHg 61%
    19:00 +27°C° 0 mm 2 mps 730 mmHg 74%
    20:00 +24°C° 0 mm 2 mps 730 mmHg 87%
    21:00 +24°C° 0 mm 2 mps 731 mmHg 88%
    22:00 +24°C° 0 mm 1 mps 731 mmHg 88%
    23:00 +24°C° 0 mm 1 mps 732 mmHg 89%

    12 April, Sunday

    Time Temperature Precipitation Wind Pressure Humidity
    00:00 +24°C° 0 mm 1 mps 731 mmHg 89%
    01:00 +24°C° 0 mm 1 mps 731 mmHg 90%
    02:00 +24°C° 0 mm 1 mps 731 mmHg 90%
    03:00 +24°C° 0 mm 1 mps 731 mmHg 91%
    04:00 +24°C° 0 mm 1 mps 731 mmHg 91%
    05:00 +24°C° 0 mm 1 mps 731 mmHg 92%
    06:00 +24°C° 0 mm 2 mps 732 mmHg 89%
    07:00 +25°C° 0 mm 2 mps 732 mmHg 86%
    08:00 +26°C° 0 mm 2 mps 733 mmHg 83%
    09:00 +28°C° 0 mm 2 mps 733 mmHg 74%
    10:00 +30°C° 0 mm 3 mps 733 mmHg 66%
    11:00 +31°C° 0 mm 3 mps 734 mmHg 57%
    12:00 +33°C° 0 mm 3 mps 733 mmHg 52%
    13:00 +34°C° 0 mm 3 mps 732 mmHg 48%
    14:00 +35°C° 0 mm 4 mps 732 mmHg 43%
    15:00 +34°C° 0 mm 4 mps 731 mmHg 49%
    16:00 +33°C° 0 mm 3 mps 731 mmHg 54%
    17:00 +30°C° 0 mm 3 mps 730 mmHg 60%
    18:00 +28°C° 0 mm 3 mps 731 mmHg 71%
    19:00 +26°C° 0 mm 2 mps 731 mmHg 82%
    20:00 +24°C° 0 mm 2 mps 731 mmHg 92%
    21:00 +24°C° 0 mm 2 mps 732 mmHg 93%
    22:00 +24°C° 0 mm 2 mps 732 mmHg 93%
    23:00 +23°C° 0 mm 2 mps 732 mmHg 94%

    13 April, Monday

    Time Temperature Precipitation Wind Pressure Humidity
    00:00 +23°C° 0 mm 2 mps 732 mmHg 94%
    01:00 +23°C° 0 mm 2 mps 732 mmHg 94%
    02:00 +23°C° 0 mm 2 mps 732 mmHg 94%
    03:00 +23°C° 0 mm 2 mps 732 mmHg 94%
    04:00 +23°C° 0 mm 2 mps 732 mmHg 95%
    05:00 +23°C° 0 mm 2 mps 732 mmHg 95%
    06:00 +24°C° 0 mm 2 mps 732 mmHg 91%
    07:00 +25°C° 0 mm 2 mps 733 mmHg 87%
    08:00 +26°C° 0 mm 2 mps 733 mmHg 82%
    09:00 +28°C° 0 mm 2 mps 734 mmHg 71%
    10:00 +30°C° 0 mm 3 mps 734 mmHg 60%
    11:00 +33°C° 0 mm 3 mps 734 mmHg 49%
    12:00 +34°C° 0 mm 3 mps 733 mmHg 46%
    13:00 +34°C° 0 mm 4 mps 732 mmHg 44%
    14:00 +35°C° 0 mm 4 mps 731 mmHg 41%
    15:00 +34°C° 0 mm 4 mps 731 mmHg 45%
    16:00 +31°C° 0 mm 3 mps 730 mmHg 50%
    17:00 +30°C° 0 mm 3 mps 730 mmHg 54%
    18:00 +28°C° 0 mm 3 mps 730 mmHg 66%
    19:00 +26°C° 0 mm 2 mps 731 mmHg 79%
    20:00 +24°C° 0 mm 2 mps 731 mmHg 91%
    21:00 +24°C° 0 mm 2 mps 731 mmHg 93%
    22:00 +23°C° 0 mm 2 mps 731 mmHg 95%
    23:00 +23°C° 0 mm 1 mps 732 mmHg 97%
    Show more